Date String (YYYY-MM-DD hh:mm:ss) UTC,Instrument flags,Ambient pressure (hPa),Sample flow (lpm),Bypass flow (lpm),Sample temperature (°C),Ambient temperature (°C),ASC tube jacket temperature (°C),LED temperature (°C),Box temperature (°C),Sample RH (%),Span deviation,Mass concentration (μg/m³),Mass concentration (μg/m³),Mass concentration (μg/m³)
DateTimeUTC,F1_M11,P_M11,Q1_M11,Q2_M11,T1_M11,T2_M11,T3_M11,T4_M11,T5_M11,U1_M11,ZSPAN_M11,X0_M11,X2_M11,X1_M11
2021-12-24 20:00:00,,0810.2,5.02,0.00,23.8,23.2,00.0,32.8,25.6,17.1,0000.0,0000.23,0000.12,0000.07
2021-12-24 20:01:00,,0810.2,5.00,0.00,23.9,23.2,00.0,32.8,25.6,17.3,0000.0,0000.25,0000.13,0000.07
2021-12-24 20:02:00,,0810.2,5.00,0.00,23.9,23.2,00.0,32.8,25.6,17.1,0000.0,0000.27,0000.13,0000.07
2021-12-24 20:03:00,,0810.2,4.99,0.00,23.9,23.2,00.0,32.8,25.6,17.8,0000.0,0000.31,0000.14,0000.07
2021-12-24 20:04:00,,0810.2,5.02,0.00,23.9,23.2,00.0,32.8,25.6,18.5,0000.0,0000.36,0000.16,0000.08
2021-12-24 20:05:00,,0810.2,4.99,0.00,23.9,23.2,00.0,32.8,25.6,18.9,0000.0,0000.36,0000.17,0000.08
2021-12-24 20:06:00,,0810.2,4.98,0.00,23.9,23.2,00.0,32.8,25.6,18.7,0000.0,0000.38,0000.17,0000.08
2021-12-24 20:07:00,,0810.2,5.01,0.00,23.8,23.1,00.0,32.8,25.5,18.9,0000.0,0000.40,0000.18,0000.09
2021-12-24 20:08:00,,0810.2,4.98,0.00,23.8,23.1,00.0,32.8,25.5,19.1,0000.0,0000.39,0000.18,0000.09
2021-12-24 20:09:00,,0810.2,5.01,0.00,23.8,23.1,00.0,32.8,25.5,18.9,0000.0,0000.40,0000.19,0000.09
2021-12-24 20:10:00,,0810.2,4.99,0.00,23.8,23.1,00.0,32.8,25.5,18.7,0000.0,0000.41,0000.21,0000.10
2021-12-24 20:11:00,,0810.3,5.01,0.00,23.8,23.1,00.0,32.8,25.5,18.7,0000.0,0000.42,0000.21,0000.10
2021-12-24 20:12:00,,0810.4,5.01,0.00,23.8,23.1,00.0,32.8,25.5,18.2,0000.0,0000.42,0000.22,0000.11
2021-12-24 20:13:00,,0810.4,4.99,0.00,23.8,23.1,00.0,32.8,25.5,18.7,0000.0,0000.40,0000.22,0000.11
2021-12-24 20:14:00,,0810.3,5.01,0.00,23.8,23.1,00.0,32.8,25.5,19.0,0000.0,0000.44,0000.23,0000.11
2021-12-24 20:15:00,,0810.4,4.98,0.00,23.8,23.1,00.0,32.8,25.5,19.0,0000.0,0000.44,0000.22,0000.11
2021-12-24 20:16:00,,0810.3,5.01,0.00,23.8,23.1,00.0,32.8,25.5,19.1,0000.0,0000.43,0000.22,0000.11
2021-12-24 20:17:00,,0810.4,5.00,0.00,23.8,23.0,00.0,32.8,25.5,19.8,0000.0,0000.46,0000.24,0000.12
2021-12-24 20:18:00,,0810.4,5.00,0.00,23.7,23.0,00.0,32.8,25.5,20.5,0000.0,0000.44,0000.23,0000.13
2021-12-24 20:19:00,,0810.4,5.01,0.00,23.7,23.0,00.0,32.8,25.5,20.5,0000.0,0000.43,0000.23,0000.12
2021-12-24 20:20:00,,0810.5,4.99,0.00,23.7,23.0,00.0,32.8,25.5,19.9,0000.0,0000.48,0000.24,0000.13
2021-12-24 20:21:00,,0810.5,4.99,0.00,23.7,23.0,00.0,32.8,25.4,20.1,0000.0,0000.56,0000.27,0000.14
2021-12-24 20:22:00,,0810.5,5.00,0.00,23.7,23.0,00.0,32.8,25.4,20.2,0000.0,0000.56,0000.28,0000.15
2021-12-24 20:23:00,,0810.5,5.01,0.00,23.7,23.0,00.0,32.7,25.4,20.2,0000.0,0000.64,0000.32,0000.18
2021-12-24 20:24:00,,0810.5,4.99,0.00,23.7,22.9,00.0,32.7,25.3,20.6,0000.0,0000.71,0000.35,0000.20
2021-12-24 20:25:00,,0810.4,4.98,0.00,23.6,22.9,00.0,32.7,25.3,20.5,0000.0,0000.74,0000.38,0000.22
2021-12-24 20:26:00,,0810.4,4.99,0.00,23.6,22.8,00.0,32.7,25.2,20.5,0000.0,0000.72,0000.40,0000.24
2021-12-24 20:27:00,,0810.5,5.00,0.00,23.6,22.9,00.0,32.7,25.2,20.7,0000.0,0000.88,0000.47,0000.26
2021-12-24 20:28:00,,0810.5,5.01,0.00,23.6,22.8,00.0,32.7,25.2,21.1,0000.0,0000.94,0000.49,0000.27
2021-12-24 20:29:00,,0810.5,5.00,0.00,23.6,22.8,00.0,32.7,25.2,21.6,0000.0,0000.92,0000.50,0000.29
2021-12-24 20:30:00,,0810.6,4.98,0.00,23.6,22.8,00.0,32.7,25.2,21.9,0000.0,0000.97,0000.54,0000.31
2021-12-24 20:31:00,,0810.5,5.00,0.00,23.6,22.8,00.0,32.7,25.2,22.4,0000.0,0001.00,0000.56,0000.33
2021-12-24 20:32:00,,0810.4,5.01,0.00,23.5,22.7,00.0,32.6,25.2,22.0,0000.0,0000.95,0000.55,0000.34
2021-12-24 20:33:00,,0810.3,5.00,0.00,23.5,22.7,00.0,32.6,25.2,21.8,0000.0,0000.97,0000.56,0000.35
2021-12-24 20:34:00,,0810.3,5.00,0.00,23.5,22.7,00.0,32.6,25.1,21.4,0000.0,0000.92,0000.54,0000.35
2021-12-24 20:35:00,,0810.3,5.00,0.00,23.5,22.7,00.0,32.6,25.1,21.5,0000.0,0000.99,0000.52,0000.34
2021-12-24 20:36:00,,0810.3,4.99,0.00,23.5,22.7,00.0,32.6,25.1,21.4,0000.0,0001.67,0000.49,0000.33
2021-12-24 20:37:00,,0810.2,5.02,0.00,23.5,22.7,00.0,32.6,25.2,21.2,0000.0,0001.94,0000.49,0000.33
2021-12-24 20:38:00,,0810.2,4.99,0.00,23.5,22.7,00.0,32.6,25.1,21.0,0000.0,0001.86,0000.45,0000.33
2021-12-24 20:39:00,,0810.3,5.00,0.00,23.5,22.7,00.0,32.6,25.1,21.1,0000.0,0002.12,0000.46,0000.33
2021-12-24 20:40:00,,0810.3,5.00,0.00,23.5,22.7,00.0,32.6,25.2,21.4,0000.0,0002.68,0000.48,0000.33
2021-12-24 20:41:00,,0810.4,5.01,0.00,23.5,22.7,00.0,32.6,25.1,21.5,0000.0,0003.31,0000.46,0000.32
2021-12-24 20:42:00,,0810.3,5.01,0.00,23.5,22.7,00.0,32.5,25.1,21.2,0000.0,0003.36,0000.43,0000.31
2021-12-24 20:43:00,,0810.3,4.99,0.00,23.5,22.8,00.0,32.5,25.2,21.2,0000.0,0003.31,0000.42,0000.30
2021-12-24 20:44:00,,0810.2,5.00,0.00,23.5,22.8,00.0,32.5,25.2,21.1,0000.0,0003.27,0000.39,0000.29
2021-12-24 20:45:00,,0810.2,5.00,0.00,23.5,22.8,00.0,32.5,25.2,21.1,0000.0,0003.25,0000.39,0000.28
2021-12-24 20:46:00,,0810.2,4.99,0.00,23.5,22.8,00.0,32.5,25.2,21.2,0000.0,0003.12,0000.37,0000.28
2021-12-24 20:47:00,,0810.2,4.99,0.00,23.5,22.8,00.0,32.5,25.2,21.3,0000.0,0002.29,0000.37,0000.28
2021-12-24 20:48:00,,0810.2,5.01,0.00,23.5,22.8,00.0,32.5,25.3,21.3,0000.0,0002.06,0000.36,0000.27
2021-12-24 20:49:00,,0810.2,5.00,0.00,23.5,22.8,00.0,32.5,25.2,21.3,0000.0,0002.03,0000.34,0000.27
2021-12-24 20:50:00,,0810.1,4.98,0.00,23.5,22.8,00.0,32.5,25.2,21.5,0000.0,0001.69,0000.33,0000.26
2021-12-24 20:51:00,,0810.1,5.00,0.00,23.5,22.8,00.0,32.5,25.2,21.7,0000.0,0001.23,0000.32,0000.24
2021-12-24 20:52:00,,0810.2,5.00,0.00,23.5,22.8,00.0,32.5,25.3,21.5,0000.0,0000.83,0000.33,0000.24
2021-12-24 20:53:00,,0810.1,5.00,0.00,23.5,22.8,00.0,32.5,25.2,21.4,0000.0,0001.06,0000.35,0000.25
2021-12-24 20:54:00,,0810.1,4.99,0.00,23.5,22.8,00.0,32.5,25.2,21.4,0000.0,0001.21,0000.39,0000.25
2021-12-24 20:55:00,,0810.1,4.99,0.00,23.5,22.8,00.0,32.5,25.2,21.4,0000.0,0001.30,0000.41,0000.26
2021-12-24 20:56:00,,0810.1,5.01,0.00,23.5,22.8,00.0,32.5,25.2,21.5,0000.0,0001.30,0000.41,0000.26
2021-12-24 20:57:00,,0810.1,4.99,0.00,23.5,22.7,00.0,32.5,25.2,21.5,0000.0,0001.33,0000.42,0000.27
2021-12-24 20:58:00,,0810.1,5.02,0.00,23.4,22.7,00.0,32.5,25.1,21.2,0000.0,0001.35,0000.43,0000.27
2021-12-24 20:59:00,,0810.0,4.99,0.00,23.4,22.7,00.0,32.5,25.1,21.2,0000.0,0001.38,0000.45,0000.27
